sat.trackr.live / text

‹ back to catalog

STARLINK-34857

NORAD 65102 · 2025-167AA

PAYLOAD ACTIVE UNKNOWN

§ Identity

Operator
Country
US
Launch date
2025-08-04
Launch site
AFETR
Launch vehicle
Mass (kg)
RCS (m²)

Purposes: comms

External: N2YO · Heavens-Above · Gunter

§ Orbital elements

Epoch: 2026-09-20T04:00:46.553472Z

Period
93.85 min
Inclination
53.1603°
Eccentricity
0.0001494
Mean motion
15.34400990 rev/d
Perigee alt
461.7 km
Apogee alt
463.7 km
Semi-major
6,840.8 km
B*
5.7312e-4
RAAN
195.6220°
Arg perigee
89.3584°
Mean anomaly
270.7590°
Rev number
6,335

§ Raw data

STARLINK-348571 65102U 25167AA  26263.16720548  .00019037  00000+0  57312-3 0  99972 65102  53.1603 195.6220 0001494  89.3584 270.7590 15.34400990 63356

JSON: /api/v1/satellites/65102 · /tle

For live sub-satellite position, see the globe view (requires WebGL).

§ Visibility from observer

Set your observer location to see the next 7 days of passes ≥ 10°. The values pass through the URL so the page stays shareable.

No JS? Fill the form by hand. The geolocation button needs JavaScript.